Location: Buchberg
(46.9333°N, 15.8500°E)
Time: 19:46:18
(UTC+00:00)

Cosmos 1184 Rocket - Pass Details

Date: 14 July 2020
Orbit: 408 x 421 km, 81.2° (Epoch: 05 August)

Event Time Altitude Azimuth Distance (km) Brightness Sun altitude
Exits shadow 00:49:47 24° 273° (W) 906 4.2 -17.3°
Maximum altitude 00:50:14 25° 288° (WNW) 884 4.3 -17.3°
Drops below altitude 10° 00:53:01 10° 347° (NNW) 1,504 6.3 -17.0°
Sets 00:55:18 0° 1° (N) 2,376 7.7 -16.9°
